Location: Newark
(49.3000°N, 9.4667°E)
Time: 17:17:46
(UTC+00:00)

Tiros 1 - Pass Details

Date: 31 May 2019
Orbit: 631 x 664 km, 48.4° (Epoch: 18 June)

Event Time Altitude Azimuth Distance (km) Brightness Sun altitude
Rises 06:52:36 0° 216° (SW) 2,907 10.2 31.4°
Reaches altitude 10° 06:55:09 10° 205° (SSW) 2,003 9.6 31.8°
Maximum altitude 06:59:03 28° 147° (SSE) 1,197 9.3 32.5°
Drops below altitude 10° 07:02:59 10° 89° (E) 2,020 11.2 33.1°
Sets 07:05:34 0° 77° (ENE) 2,936 11.5 33.5°
